Starlink 35361

operational
NORAD ID: 65667 Int'l Des: 2025-211 Owner: SPXS Country: US Constellation: starlink
NOTLE

关于 Starlink 35361

正在加载描述...

实时位置

正在加载3D地球...

即将过境

高度历史

Altitude vs Time

uPlot chart will show altitude changes over time

两行轨道根数

1 65667U 25211R 25343.10078163 .00007186 00000-0 50198-3 0 9992
2 65667 97.6038 24.8107 0001076 78.9411 281.1937 15.05628996 13412
Epoch: Dec 9, 2025 • Age: 8 hours

当前状态

高度 559.5 km
速度 7.59 km/s
星下点 61.21°N, 23.04°W
发射日期 Sep 19, 2025
运行时间 0.2 years
类型 internet

技术详情

分类 Payload
质量 575.00 kg
干质量 530.00 kg
总质量 575.00 kg
长度 0.30 m
直径 4.10 m
跨度 29.00 m
形状 Box + pan
制造商 SPXS
平台类型 Starlink V2MO
阶段状态 In Orbit
所有者/国家 SPXS/US

大型星座

Loading constellations...